• In Czech Republic
  • List of Countries
  • For 7 days
  • Water Temperature
  • Satellite Maps
  • Weather Map
  • Weather Widgets
  • user-avatar
    Login

    Hourly Weather Gaborone

    Today, 26 April, Thursday

    Time Temperature Precipitation Wind Pressure Humidity
    00:00 +21°C° 0 mm 2 mps 679 mmHg 38%
    01:00 +20°C° 0 mm 2 mps 679 mmHg 41%
    02:00 +20°C° 0 mm 2 mps 679 mmHg 44%
    03:00 +20°C° 0 mm 1 mps 678 mmHg 46%
    04:00 +19°C° 0 mm 1 mps 678 mmHg 48%
    05:00 +19°C° 0 mm 1 mps 678 mmHg 50%
    06:00 +19°C° 0 mm 1 mps 679 mmHg 48%
    07:00 +19°C° 0 mm 2 mps 679 mmHg 46%
    08:00 +20°C° 0 mm 2 mps 680 mmHg 44%
    09:00 +23°C° 0 mm 2 mps 680 mmHg 38%
    10:00 +26°C° 0 mm 3 mps 681 mmHg 32%
    11:00 +28°C° 0 mm 3 mps 681 mmHg 26%
    12:00 +29°C° 0 mm 3 mps 681 mmHg 23%
    13:00 +31°C° 0 mm 2 mps 680 mmHg 20%
    14:00 +32°C° 0 mm 2 mps 680 mmHg 18%
    15:00 +31°C° 0 mm 1 mps 680 mmHg 18%
    16:00 +31°C° 0 mm 1 mps 679 mmHg 18%
    17:00 +31°C° 0 mm 1 mps 679 mmHg 18%
    18:00 +29°C° 0 mm 1 mps 679 mmHg 20%
    19:00 +27°C° 0 mm 1 mps 679 mmHg 22%
    20:00 +25°C° 0 mm 2 mps 679 mmHg 24%
    21:00 +24°C° 0 mm 1 mps 679 mmHg 25%
    22:00 +23°C° 0 mm 1 mps 679 mmHg 26%
    23:00 +23°C° 0 mm 1 mps 679 mmHg 27%

    Tomorrow, 27 April, Friday

    Time Temperature Precipitation Wind Pressure Humidity
    00:00 +22°C° 0 mm 1 mps 678 mmHg 28%
    01:00 +21°C° 0 mm 1 mps 678 mmHg 29%
    02:00 +19°C° 0 mm 0 mps 678 mmHg 30%
    03:00 +18°C° 0 mm 0 mps 678 mmHg 31%
    04:00 +18°C° 0 mm 0 mps 678 mmHg 32%
    05:00 +17°C° 0 mm 0 mps 678 mmHg 33%
    06:00 +18°C° 0 mm 0 mps 679 mmHg 31%
    07:00 +19°C° 0 mm 0 mps 680 mmHg 30%
    08:00 +21°C° 0 mm 0 mps 680 mmHg 28%
    09:00 +25°C° 0 mm 1 mps 681 mmHg 25%
    10:00 +28°C° 0 mm 1 mps 681 mmHg 21%
    11:00 +30°C° 0 mm 1 mps 682 mmHg 18%
    12:00 +31°C° 0 mm 2 mps 681 mmHg 17%
    13:00 +32°C° 0 mm 2 mps 681 mmHg 15%
    14:00 +34°C° 0 mm 2 mps 680 mmHg 14%
    15:00 +32°C° 0 mm 2 mps 680 mmHg 15%
    16:00 +32°C° 0 mm 2 mps 679 mmHg 15%
    17:00 +32°C° 0 mm 2 mps 679 mmHg 15%
    18:00 +30°C° 0 mm 2 mps 679 mmHg 17%
    19:00 +27°C° 0 mm 1 mps 679 mmHg 19%
    20:00 +25°C° 0 mm 1 mps 679 mmHg 21%
    21:00 +25°C° 0 mm 1 mps 679 mmHg 22%
    22:00 +24°C° 0 mm 1 mps 679 mmHg 23%
    23:00 +23°C° 0 mm 1 mps 679 mmHg 23%

    Day after tomorrow, 28 April, Saturday

    Time Temperature Precipitation Wind Pressure Humidity
    00:00 +23°C° 0 mm 1 mps 679 mmHg 24%
    01:00 +22°C° 0 mm 1 mps 679 mmHg 26%
    02:00 +21°C° 0 mm 2 mps 679 mmHg 27%
    03:00 +20°C° 0 mm 2 mps 679 mmHg 29%
    04:00 +19°C° 0 mm 2 mps 679 mmHg 31%
    05:00 +18°C° 0 mm 2 mps 679 mmHg 33%
    06:00 +19°C° 0 mm 2 mps 679 mmHg 34%
    07:00 +20°C° 0 mm 2 mps 680 mmHg 35%
    08:00 +21°C° 0 mm 2 mps 681 mmHg 35%
    09:00 +24°C° 0 mm 3 mps 681 mmHg 31%
    10:00 +26°C° 0 mm 3 mps 682 mmHg 28%
    11:00 +29°C° 0 mm 4 mps 682 mmHg 24%
    12:00 +30°C° 0 mm 3 mps 681 mmHg 21%
    13:00 +31°C° 0 mm 3 mps 681 mmHg 19%
    14:00 +33°C° 0 mm 3 mps 680 mmHg 17%
    15:00 +32°C° 0 mm 2 mps 680 mmHg 17%
    16:00 +32°C° 0 mm 2 mps 680 mmHg 17%
    17:00 +31°C° 0 mm 2 mps 680 mmHg 17%
    18:00 +29°C° 0 mm 2 mps 680 mmHg 19%
    19:00 +27°C° 0 mm 2 mps 680 mmHg 21%
    20:00 +25°C° 0 mm 1 mps 680 mmHg 24%
    21:00 +24°C° 0 mm 1 mps 680 mmHg 25%
    22:00 +23°C° 0 mm 1 mps 680 mmHg 26%
    23:00 +23°C° 0 mm 1 mps 680 mmHg 27%

    29 April, Sunday

    Time Temperature Precipitation Wind Pressure Humidity
    00:00 +22°C° 0 mm 1 mps 680 mmHg 28%
    01:00 +22°C° 0 mm 1 mps 680 mmHg 29%
    02:00 +21°C° 0 mm 1 mps 679 mmHg 30%
    03:00 +21°C° 0 mm 1 mps 679 mmHg 31%
    04:00 +20°C° 0 mm 1 mps 679 mmHg 33%
    05:00 +19°C° 0 mm 1 mps 679 mmHg 34%
    06:00 +20°C° 0 mm 1 mps 680 mmHg 33%
    07:00 +21°C° 0 mm 1 mps 680 mmHg 32%
    08:00 +22°C° 0 mm 1 mps 681 mmHg 31%
    09:00 +25°C° 0 mm 2 mps 681 mmHg 27%
    10:00 +27°C° 0 mm 2 mps 682 mmHg 23%
    11:00 +30°C° 0 mm 3 mps 682 mmHg 19%
    12:00 +31°C° 0 mm 3 mps 682 mmHg 18%
    13:00 +33°C° 0 mm 3 mps 681 mmHg 16%
    14:00 +34°C° 0 mm 3 mps 681 mmHg 14%
    15:00 +32°C° 0 mm 2 mps 680 mmHg 15%
    16:00 +32°C° 0 mm 2 mps 680 mmHg 15%
    17:00 +32°C° 0 mm 2 mps 680 mmHg 15%
    18:00 +29°C° 0 mm 2 mps 680 mmHg 18%
    19:00 +27°C° 0 mm 2 mps 680 mmHg 20%
    20:00 +25°C° 0 mm 1 mps 680 mmHg 22%
    21:00 +24°C° 0 mm 2 mps 680 mmHg 23%
    22:00 +24°C° 0 mm 2 mps 680 mmHg 25%
    23:00 +23°C° 0 mm 2 mps 680 mmHg 26%

    30 April, Monday

    Time Temperature Precipitation Wind Pressure Humidity
    00:00 +21°C° 0 mm 2 mps 680 mmHg 29%
    01:00 +20°C° 0 mm 2 mps 680 mmHg 31%
    02:00 +20°C° 0 mm 2 mps 679 mmHg 34%
    03:00 +19°C° 0 mm 2 mps 679 mmHg 37%
    04:00 +19°C° 0 mm 1 mps 680 mmHg 41%
    05:00 +18°C° 0 mm 1 mps 680 mmHg 44%
    06:00 +19°C° 0 mm 1 mps 680 mmHg 45%
    07:00 +19°C° 0 mm 2 mps 681 mmHg 45%
    08:00 +19°C° 0 mm 2 mps 682 mmHg 45%
    09:00 +23°C° 0 mm 2 mps 682 mmHg 40%
    10:00 +25°C° 0 mm 3 mps 682 mmHg 35%
    11:00 +28°C° 0 mm 3 mps 683 mmHg 30%
    12:00 +29°C° 0 mm 3 mps 682 mmHg 27%
    13:00 +30°C° 0 mm 3 mps 682 mmHg 24%
    14:00 +33°C° 0 mm 4 mps 681 mmHg 21%
    15:00 +31°C° 0 mm 3 mps 681 mmHg 22%
    16:00 +31°C° 0 mm 3 mps 681 mmHg 22%
    17:00 +31°C° 0 mm 3 mps 681 mmHg 22%
    18:00 +29°C° 0 mm 3 mps 681 mmHg 25%
    19:00 +27°C° 0 mm 2 mps 681 mmHg 28%
    20:00 +25°C° 0 mm 1 mps 681 mmHg 31%
    21:00 +24°C° 0 mm 2 mps 681 mmHg 32%
    22:00 +24°C° 0 mm 2 mps 681 mmHg 34%
    23:00 +22°C° 0 mm 3 mps 681 mmHg 35%

    1 May, Tuesday

    Time Temperature Precipitation Wind Pressure Humidity
    00:00 +22°C° 0 mm 3 mps 681 mmHg 40%
    01:00 +21°C° 0 mm 3 mps 681 mmHg 45%
    02:00 +20°C° 0 mm 3 mps 681 mmHg 50%
    03:00 +19°C° 0 mm 3 mps 681 mmHg 59%
    04:00 +18°C° 0 mm 3 mps 681 mmHg 67%
    05:00 +18°C° 0 mm 3 mps 682 mmHg 75%
    06:00 +18°C° 0 mm 4 mps 682 mmHg 75%
    07:00 +18°C° 0 mm 4 mps 682 mmHg 74%
    08:00 +19°C° 0 mm 5 mps 683 mmHg 74%
    09:00 +20°C° 0 mm 5 mps 683 mmHg 67%
    10:00 +22°C° 0 mm 5 mps 683 mmHg 60%
    11:00 +24°C° 0 mm 6 mps 684 mmHg 53%
    12:00 +26°C° 0 mm 6 mps 683 mmHg 47%
    13:00 +27°C° 0 mm 6 mps 683 mmHg 42%
    14:00 +29°C° 0 mm 5 mps 682 mmHg 37%
    15:00 +28°C° 0 mm 5 mps 682 mmHg 38%
    16:00 +28°C° 0 mm 5 mps 681 mmHg 38%
    17:00 +28°C° 0 mm 5 mps 681 mmHg 38%
    18:00 +26°C° 0 mm 4 mps 681 mmHg 44%
    19:00 +24°C° 0 mm 3 mps 681 mmHg 49%
    20:00 +23°C° 0 mm 2 mps 681 mmHg 55%
    21:00 +21°C° 0 mm 2 mps 681 mmHg 58%
    22:00 +21°C° 0 mm 2 mps 681 mmHg 61%
    23:00 +20°C° 0 mm 2 mps 681 mmHg 64%
    Show more